[[{"header":{"parameterUnit":"m.s-1","parameterCategory":1,"la1":30.2991,"la2":30.254,"lo1":-89.0895,"lo2":-89.0444,"dy":0.0017,"dx":0.0017,"nx":28,"ny":28,"refTime":"2024-08-06T21:00:00:Z","depth":0,"parameterNumber":2,"parameterNumberName":"U-component_of_WINDS"},"data":[0,0,0,0,0,0,0,0,0,0,0,0,0,0,0,0,0,0,0,0,0,0,0,0,0,0,0,0,0,0,0,0,0,0,0,0,0,0,0,0,0,0,0,0,0,0,0,0,0,0,0,0,0,0,0,0,0,0,3.011,3.0111,0,3.0183,3.0183,3.0184,3.0166,3.0165,3.0163,3.0162,3.0241,3.0245,3.0248,0,0,0,0,0,0,0,0,0,0,0,0,0,2.9965,2.9967,3.011,3.0111,3.0112,3.0182,3.0183,3.0184,3.0166,3.0165,3.0163,3.0161,3.024,3.0244,3.0248,0,0,0,0,0,0,0,0,0,0,0,0,0,3.0032,2.9968,3.011,3.0111,3.0112,3.0182,3.0183,3.0185,3.0167,3.0164,3.0162,3.016,3.0239,3.0244,3.0249,3.0324,0,0,3.0265,3.0267,0,0,0,0,0,0,0,0,3.0028,3.0037,3.011,3.0111,3.0112,3.0163,3.0161,3.0232,3.0167,3.0146,3.0162,3.0159,3.0217,3.0224,3.0243,3.0328,3.0331,3.0265,3.0268,3.0271,3.0272,0,0,0,0,0,0,0,3.0023,3.0034,3.0139,3.0111,3.0113,3.0111,3.0118,3.0175,3.0193,3.0148,3.0147,3.0155,3.0218,3.0238,3.0244,3.0332,3.0265,3.027,3.0273,3.0275,3.0489,3.0491,0,0,0,0,0,0,3.0017,3.003,3.0137,3.0141,3.0064,3.0115,3.0123,3.0149,3.0192,3.0197,3.0157,3.0154,3.023,3.0238,3.0247,3.0342,3.0271,3.0275,3.0278,3.0486,3.0489,3.0492,0,0,0,0,0,0,3.0014,3.0026,3.0134,3.0085,3.0099,3.012,3.0149,3.0152,3.0172,3.0199,3.0203,3.0173,3.0228,3.024,3.0306,3.0344,3.0278,3.0282,3.0483,3.0487,3.0491,3.0529,0,0,0,0,0,0,3.001,3.0025,3.0052,3.0086,3.0101,3.0189,3.0151,3.0155,3.018,3.0177,3.0216,3.022,3.0228,3.0298,3.0311,3.035,3.0286,3.048,3.0485,3.049,3.0525,3.0534,3.0542,0,0,0,0,0,3.0004,3.006,3.0053,3.0066,3.0135,3.0191,3.02,3.0206,3.0183,3.0212,3.023,3.0219,3.0337,3.0305,3.0319,3.0361,3.0478,3.0484,3.0489,3.0521,3.0532,3.0542,0,0,0,0,0,0,3.003,3.0064,3.0057,3.0125,3.0155,3.0188,3.0224,3.0217,3.0256,3.0251,3.0259,3.0268,3.0337,3.0355,3.0318,3.0439,3.0405,3.0414,3.0424,3.0435,3.0443,3.0439,3.0291,0,0,0,0,0,3.0043,3.0084,3.0112,3.017,3.0185,3.0202,3.0227,3.0229,3.0261,3.0274,3.0297,3.0331,3.0377,3.0407,3.0449,3.0527,3.0538,3.0563,3.0571,3.0578,3.0587,3.0635,3.0647,3.0511,3.0511,3.0511,0,0,3.0072,3.0095,3.0121,3.0175,3.0199,3.0245,3.0213,3.0261,3.0296,3.0282,3.0347,3.0365,3.0404,3.0478,3.0511,3.0495,3.0627,3.0586,3.0591,3.0596,3.0642,3.0655,3.0666,3.0515,3.0514,3.0514,0,0,3.0147,3.0167,3.0219,3.0244,3.0281,3.0292,3.0305,3.034,3.0351,3.0416,3.0408,3.0451,3.0527,3.0557,3.0582,3.0673,3.0667,3.0687,3.0733,3.078,3.079,3.08,3.0837,3.085,3.0695,3.0695,3.0695,0,3.0179,3.0244,3.0247,3.0297,3.0324,3.0313,3.0369,3.0393,3.0442,3.0462,3.0443,3.0542,3.0567,3.065,3.0673,3.0692,3.071,3.0683,3.0788,3.0798,3.0807,3.0842,3.0856,3.0698,3.0697,3.0697,3.0697,0,3.0283,3.0329,3.0367,3.0415,3.0445,3.0498,3.0512,3.0543,3.0544,3.0559,3.0628,3.0658,3.0709,3.0728,3.0729,3.0813,3.0802,3.0785,3.0752,3.0822,3.0856,3.0869,3.0701,3.07,3.07,3.0699,0,0,3.0376,3.0427,3.0441,3.0465,3.0506,3.0543,3.0597,3.0646,3.0675,3.071,3.0759,3.0826,3.0812,3.084,3.0845,3.0885,3.0962,3.0864,3.0865,3.0885,3.1062,3.1077,3.1092,3.0957,3.0959,3.0961,3.106,0,3.0458,3.0551,3.0557,3.0643,3.0688,3.0681,3.0729,3.0761,3.0777,3.0821,3.0839,3.0888,3.0864,3.0882,3.0921,3.0944,3.0998,3.0936,3.1006,3.1008,3.0999,3.1109,3.1123,3.1215,3.1073,3.1075,3.1077,0,3.0565,3.0604,3.0694,3.0733,3.0753,3.0795,3.0843,3.0883,3.0922,3.0931,3.0965,3.0965,3.1025,3.0988,3.1074,3.1032,3.1061,3.1077,3.1081,3.109,3.1048,3.1124,3.1244,3.1259,3.1096,3.1095,3.1093,0,3.0629,3.0704,3.0769,3.0789,3.0834,3.0866,3.0887,3.0923,3.0954,3.0996,3.1018,3.1067,3.1095,3.1135,3.1151,3.1121,3.1237,3.12,3.125,3.125,3.1277,3.1275,3.1406,3.129,3.129,3.129,3.1289,0,3.0721,3.0778,3.0798,3.0838,3.0903,3.0912,3.0977,3.0996,3.103,3.1077,3.1073,3.1118,3.1133,3.1182,3.1194,3.1266,3.1278,3.129,3.1293,3.1292,3.1291,3.1313,3.1309,3.1293,3.1292,3.1292,3.1291,0,3.0804,3.0819,3.089,3.0929,3.094,3.0987,3.1021,3.1062,3.1078,3.1138,3.1153,3.1179,3.1237,3.1255,3.1324,3.1333,3.1418,3.1414,3.1405,3.1406,3.1457,3.1454,3.1609,3.1632,3.1498,3.1499,3.15,0,3.0863,3.0907,3.0951,3.0981,3.1004,3.1052,3.1084,3.1096,3.1129,3.1179,3.1216,3.1272,3.1318,3.1411,3.1438,3.1493,3.1492,3.1543,3.1501,3.15,3.1498,3.1497,3.1504,3.1552,3.1554,3.1555,3.1556,0,3.0969,3.0975,3.102,3.1069,3.1107,3.1146,3.1184,3.121,3.1228,3.1267,3.1325,3.1361,3.1433,3.1491,3.1547,3.1572,3.1569,3.1569,3.1584,3.1585,3.1579,3.1587,3.1431,3.1566,3.1565,3.1564,3.1563,3.1563,3.1044,3.1084,3.1123,3.1174,3.1204,3.1241,3.1282,3.1304,3.1353,3.1411,3.1416,3.148,3.1523,3.1598,3.1626,3.1679,3.1665,3.1686,3.1692,3.1698,3.1704,3.1568,3.1689,3.1689,3.1689,3.1688,3.1688,0,3.1153,3.1178,3.1225,3.1279,3.1321,3.1312,3.1355,3.1391,3.1447,3.1486,3.1532,3.1602,3.1659,3.1692,3.1751,3.1787,3.1788,3.1803,3.1802,3.1809,3.1711,3.1694,3.1802,3.1802,3.1802,3.1802,3.1802,3.1802,3.1214,3.1283,3.1295,3.1381,3.1406,3.1468,3.1494,3.153,3.1561,3.1639,3.1686,3.1707,3.1745,3.1807,3.1861,3.1869,3.1893,3.191,3.1918,3.1827,3.1815,3.1804,3.1788,3.1914,3.1914,3.2012,3.2013,3.2014]},{"header":{"parameterUnit":"m.s-1","parameterCategory":1,"la1":30.2991,"la2":30.254,"lo1":-89.0895,"lo2":-89.0444,"dy":0.0017,"dx":0.0017,"nx":28,"ny":28,"refTime":"2024-08-06T21:00:00:Z","depth":0,"parameterNumber":3,"parameterNumberName":"V-component_of_WINDS"},"data":[0,0,0,0,0,0,0,0,0,0,0,0,0,0,0,0,0,0,0,0,0,0,0,0,0,0,0,0,0,0,0,0,0,0,0,0,0,0,0,0,0,0,0,0,0,0,0,0,0,0,0,0,0,0,0,0,0,0,-0.3964,-0.3962,0,-0.3818,-0.3817,-0.3815,-0.3868,-0.3871,-0.3875,-0.3878,-0.3723,-0.3716,-0.3709,0,0,0,0,0,0,0,0,0,0,0,0,0,-0.4282,-0.4276,-0.3964,-0.3962,-0.396,-0.3819,-0.3817,-0.3815,-0.3867,-0.3871,-0.3875,-0.3879,-0.3725,-0.3717,-0.3708,0,0,0,0,0,0,0,0,0,0,0,0,0,-0.4141,-0.4274,-0.3964,-0.397,-0.3969,-0.3819,-0.3816,-0.3814,-0.3867,-0.3872,-0.3876,-0.3881,-0.3728,-0.3718,-0.3707,-0.3541,0,0,-0.3674,-0.3669,0,0,0,0,0,0,0,0,-0.4149,-0.4129,-0.3971,-0.3969,-0.3968,-0.3867,-0.3872,-0.3722,-0.3865,-0.3905,-0.3878,-0.3884,-0.3766,-0.3753,-0.3714,-0.3534,-0.3527,-0.3673,-0.3666,-0.3662,-0.3659,0,0,0,0,0,0,0,-0.4159,-0.4136,-0.3906,-0.3968,-0.3966,-0.3978,-0.3963,-0.3844,-0.3809,-0.3902,-0.3906,-0.3888,-0.3766,-0.3725,-0.3711,-0.3525,-0.3673,-0.3664,-0.3657,-0.3653,-0.3203,-0.3198,0,0,0,0,0,0,-0.417,-0.4144,-0.3911,-0.3902,-0.4072,-0.3968,-0.3952,-0.3894,-0.3811,-0.3803,-0.3884,-0.3891,-0.3741,-0.3724,-0.3706,-0.3507,-0.3662,-0.3652,-0.3646,-0.3208,-0.3202,-0.3196,0,0,0,0,0,0,-0.4176,-0.4149,-0.3917,-0.4023,-0.3995,-0.3957,-0.3892,-0.3888,-0.3847,-0.3797,-0.3791,-0.3848,-0.3744,-0.3721,-0.3583,-0.3502,-0.3647,-0.3637,-0.3215,-0.3206,-0.3199,-0.3108,0,0,0,0,0,0,-0.4185,-0.4151,-0.4088,-0.4022,-0.3989,-0.3796,-0.3887,-0.3882,-0.3829,-0.3837,-0.3762,-0.3754,-0.3746,-0.3598,-0.3572,-0.349,-0.3629,-0.3222,-0.3211,-0.3201,-0.3118,-0.3097,-0.308,0,0,0,0,0,-0.4197,-0.4067,-0.4085,-0.4056,-0.3911,-0.3792,-0.3773,-0.3768,-0.3822,-0.3758,-0.3727,-0.3757,-0.3516,-0.3584,-0.3554,-0.3468,-0.3227,-0.3214,-0.3202,-0.3126,-0.3101,-0.3081,0,0,0,0,0,0,-0.4122,-0.4058,-0.4077,-0.3923,-0.3863,-0.3801,-0.3721,-0.3742,-0.3663,-0.3674,-0.3669,-0.3652,-0.3509,-0.3475,-0.3552,-0.3304,-0.3379,-0.336,-0.3332,-0.3308,-0.3289,-0.33,-0.362,0,0,0,0,0,-0.4088,-0.3999,-0.3947,-0.3816,-0.3785,-0.3758,-0.3706,-0.3708,-0.3644,-0.3618,-0.3577,-0.3513,-0.3423,-0.3364,-0.3278,-0.3114,-0.3098,-0.304,-0.3021,-0.3006,-0.2989,-0.29,-0.2874,-0.3155,-0.3155,-0.3156,0,0,-0.4016,-0.397,-0.3914,-0.38,-0.3753,-0.366,-0.3736,-0.3633,-0.3563,-0.3602,-0.347,-0.3437,-0.3365,-0.3213,-0.3144,-0.318,-0.2909,-0.299,-0.2979,-0.297,-0.2885,-0.2858,-0.2835,-0.3147,-0.3148,-0.315,0,0,-0.3837,-0.3794,-0.368,-0.3633,-0.3563,-0.3546,-0.3519,-0.3454,-0.3434,-0.3302,-0.333,-0.3246,-0.3091,-0.3039,-0.2992,-0.2796,-0.282,-0.2768,-0.2669,-0.2582,-0.256,-0.254,-0.247,-0.2445,-0.2752,-0.2751,-0.2751,0,-0.3756,-0.3618,-0.3618,-0.3514,-0.3462,-0.3496,-0.338,-0.3334,-0.3238,-0.3201,-0.3244,-0.3052,-0.3005,-0.2842,-0.2795,-0.2756,-0.2724,-0.2776,-0.2564,-0.2544,-0.2525,-0.2458,-0.2432,-0.2746,-0.2746,-0.2747,-0.2747,0,-0.3521,-0.3425,-0.3341,-0.3251,-0.319,-0.308,-0.3063,-0.3001,-0.3009,-0.2987,-0.2852,-0.2798,-0.2703,-0.2665,-0.2669,-0.2502,-0.2526,-0.2566,-0.2641,-0.2493,-0.243,-0.2404,-0.2737,-0.2739,-0.2741,-0.2742,0,0,-0.3289,-0.3203,-0.3172,-0.3132,-0.3058,-0.2982,-0.2874,-0.2783,-0.273,-0.2664,-0.2572,-0.2442,-0.2479,-0.2426,-0.2425,-0.2349,-0.2197,-0.2398,-0.2397,-0.2363,-0.2009,-0.198,-0.195,-0.2214,-0.2209,-0.2205,-0.2015,0,-0.3104,-0.2916,-0.2914,-0.2741,-0.2652,-0.2683,-0.2589,-0.2533,-0.251,-0.243,-0.2404,-0.2312,-0.2368,-0.2336,-0.2263,-0.2231,-0.2126,-0.2245,-0.2127,-0.2123,-0.2144,-0.1917,-0.1884,-0.1708,-0.1991,-0.1986,-0.1983,0,-0.2863,-0.2791,-0.2609,-0.255,-0.2512,-0.2428,-0.2345,-0.2268,-0.2205,-0.2194,-0.2136,-0.2148,-0.2036,-0.2116,-0.1962,-0.2044,-0.1995,-0.1973,-0.1966,-0.1954,-0.2044,-0.1898,-0.1652,-0.1625,-0.1945,-0.1948,-0.195,0,-0.2712,-0.257,-0.2443,-0.2408,-0.2335,-0.2275,-0.2241,-0.2183,-0.2129,-0.2056,-0.2021,-0.1935,-0.1888,-0.1821,-0.1809,-0.1868,-0.1654,-0.1733,-0.1641,-0.1641,-0.1594,-0.1596,-0.1335,-0.1564,-0.1564,-0.1564,-0.1565,0,-0.2505,-0.2392,-0.2374,-0.2296,-0.2171,-0.217,-0.2045,-0.2016,-0.1965,-0.1881,-0.1902,-0.1823,-0.1812,-0.1729,-0.1719,-0.1593,-0.1572,-0.1559,-0.1557,-0.1556,-0.1558,-0.1524,-0.1536,-0.1557,-0.1559,-0.156,-0.1562,0,-0.2314,-0.2298,-0.2162,-0.2105,-0.2088,-0.1998,-0.1949,-0.1874,-0.1855,-0.1748,-0.1723,-0.1692,-0.1596,-0.1578,-0.1463,-0.1457,-0.1307,-0.1318,-0.1328,-0.1329,-0.1238,-0.1247,-0.0945,-0.0906,-0.116,-0.1158,-0.1156,0,-0.2183,-0.2098,-0.2033,-0.1979,-0.1943,-0.1856,-0.1802,-0.1798,-0.174,-0.1663,-0.1596,-0.1503,-0.1429,-0.1273,-0.124,-0.1153,-0.1161,-0.1062,-0.1148,-0.115,-0.1159,-0.1164,-0.1156,-0.1045,-0.1042,-0.104,-0.1038,0,-0.1952,-0.1948,-0.187,-0.1789,-0.1725,-0.166,-0.1599,-0.1554,-0.1541,-0.1475,-0.1378,-0.132,-0.1206,-0.1112,-0.1026,-0.099,-0.1011,-0.1011,-0.0985,-0.0983,-0.0993,-0.0986,-0.1283,-0.1018,-0.102,-0.1021,-0.1022,-0.1023,-0.1786,-0.1712,-0.1656,-0.1568,-0.1522,-0.1465,-0.1392,-0.1365,-0.1285,-0.1193,-0.1194,-0.1088,-0.1028,-0.0915,-0.0874,-0.079,-0.0822,-0.0784,-0.0774,-0.0765,-0.0756,-0.1007,-0.0774,-0.0775,-0.0775,-0.0776,-0.0776,0,-0.1556,-0.1522,-0.1442,-0.1357,-0.1288,-0.1317,-0.1251,-0.1191,-0.1098,-0.1041,-0.0968,-0.0857,-0.0767,-0.0727,-0.0639,-0.058,-0.0587,-0.0556,-0.056,-0.0552,-0.0733,-0.0764,-0.0552,-0.0552,-0.0552,-0.0552,-0.0552,-0.0552,-0.1428,-0.1305,-0.1295,-0.1149,-0.1115,-0.1013,-0.0973,-0.092,-0.0875,-0.0751,-0.0677,-0.0653,-0.0603,-0.0511,-0.043,-0.0421,-0.0387,-0.0351,-0.0346,-0.0516,-0.0539,-0.056,-0.059,-0.0344,-0.0344,-0.0172,-0.017,-0.0169]}]]